This is the latest recevied weather packets stored in our database for station/object DO7ZT-13. If no packets are shown the sender has not sent any weather packets the latest 10 day(s).
| Time | Temp. | Humidity | Pressure | Rain* | Wind** | Luminosity | Snow |
|---|---|---|---|---|---|---|---|
| 1777713026 | 21.11° C | 29% | 1023.8 hPa | 0 mm | 0.89 m/s, 264° | - | - |
| 1777712713 | 21.11° C | 30% | 1023.8 hPa | 0 mm | 0.89 m/s, 145° | - | - |
| 1777712426 | 21.11° C | 30% | 1023.9 hPa | 0 mm | 1.79 m/s, 138° | - | - |
| 1777712113 | 21.11° C | 28% | 1023.9 hPa | 0 mm | 1.34 m/s, 204° | - | - |
| 1777711826 | 21.11° C | 31% | 1023.9 hPa | 0 mm | 0.45 m/s, 145° | - | - |
| 1777711514 | 21.11° C | 29% | 1024 hPa | 0 mm | 1.34 m/s, 129° | - | - |
| 1777711226 | 21.11° C | 30% | 1024 hPa | 0 mm | 1.79 m/s, 132° | - | - |
| 1777710913 | 21.11° C | 30% | 1024 hPa | 0 mm | 1.79 m/s, 159° | - | - |
| 1777710626 | 20° C | 33% | 1024.1 hPa | 0 mm | 1.34 m/s, 134° | - | - |
| 1777710313 | 20° C | 32% | 1024.1 hPa | 0 mm | 1.79 m/s, 167° | - | - |
| 1777710038 | 20° C | 35% | 1024.1 hPa | 0 mm | 1.34 m/s, 188° | - | - |
| 1777709725 | 20° C | 31% | 1024.2 hPa | 0 mm | 1.34 m/s, 167° | - | - |
| 1777709413 | 20° C | 36% | 1024.2 hPa | 0 mm | 2.24 m/s, 134° | - | - |
| 1777709125 | 20° C | 36% | 1024.2 hPa | 0 mm | 1.34 m/s, 120° | - | - |
| 1777708813 | 20° C | 36% | 1024.2 hPa | 0 mm | 1.34 m/s, 196° | - | - |
| 1777708525 | 20° C | 35% | 1024.2 hPa | 0 mm | 1.34 m/s, 168° | - | - |
| 1777708213 | 20° C | 36% | 1024.2 hPa | 0 mm | 0.89 m/s, 240° | - | - |
| 1777707925 | 20° C | 38% | 1024.4 hPa | 0 mm | 0.89 m/s, 144° | - | - |
| 1777707613 | 20° C | 38% | 1024.4 hPa | 0 mm | 1.34 m/s, 138° | - | - |
| 1777707326 | 18.89° C | 37% | 1024.4 hPa | 0 mm | 1.34 m/s, 150° | - | - |
| 1777707013 | 18.89° C | 38% | 1024.3 hPa | 0 mm | 0.45 m/s, 174° | - | - |
| 1777706725 | 18.89° C | 38% | 1024.3 hPa | 0 mm | 0.89 m/s, 192° | - | - |
| 1777706413 | 18.89° C | 39% | 1024.3 hPa | 0 mm | 1.34 m/s, 144° | - | - |
| 1777706125 | 18.89° C | 38% | 1024.3 hPa | 0 mm | 0.89 m/s, 153° | - | - |
| 1777705813 | 18.89° C | 39% | 1024.3 hPa | 0 mm | 0.89 m/s, 154° | - | - |
* Rain latest hour (hover to see other rain measurements)
** Current wind speed in m/s (hover to see current wind gust speed)